Regional Weather Roundup
Issued by NWS

Home | Current Version | Previous Version | Graphics & Text | Print | Product List | Glossary On
Versions: 1 2 3 4 5 6 7 8 9 10 11 12 13 14 15 16 17 18 19 20 21 22 23 24 25 26 27 28
000
ASUS45 KBOI 291910
RWRID

IDAHO REGIONAL WEATHER ROUNDUP
NATIONAL WEATHER SERVICE BOISE ID
100 PM MDT THU SEP 29 2016

NOTE: "FAIR" INDICATES FEW OR NO CLOUDS BELOW 12000 FEET
WITH NO SIGNIFICANT WEATHER AND/OR OBSTRUCTIONS TO VISIBILITY

IDZ012-014-292000-
SOUTHWEST IDAHO


CITY           SKY/WX    TMP DP  RH WIND       PRES   REMARKS
BOISE          MOSUNNY   84  38  19 S13       30.02S
CALDWELL       MOSUNNY   85  47  26 SE10      30.00F
MOUNTAIN HOME  PTSUNNY   84  44  24 E16       30.04S
$$

IDZ016-017-292000-
SOUTHCENTRAL IDAHO


CITY           SKY/WX    TMP DP  RH WIND       PRES   REMARKS
BURLEY         MOSUNNY   71  50  47 SE3       30.14F
JEROME         MOSUNNY   78  45  30 E7        30.14S
TWIN FALLS     MOSUNNY   80  41  24 S14       30.13S
$$

IDZ019>023-292000-
SOUTHEAST IDAHO


CITY           SKY/WX    TMP DP  RH WIND       PRES   REMARKS
IDAHO FALLS    MOSUNNY   73  44  35 S8        30.22F
POCATELLO      PTSUNNY   75  46  35 S17G28    30.19F
REXBURG        CLOUDY    73  43  33 S9        30.22F
$$

IDZ006-010-011-018-031-032-292000-
CENTRAL IDAHO MOUNTAINS


CITY           SKY/WX    TMP DP  RH WIND       PRES   REMARKS
MCCALL         MOSUNNY   70  41  34 SW5       30.12F
HAILEY         MOSUNNY   72  48  43 SE8       30.22F
STANLEY          N/A     71  40  32 SE8G17    30.22F
SALMON         SUNNY     70  39  32 NW3       30.09F
CHALLIS        MOSUNNY   66  37  34 CALM      30.17F
$$

IDZ002-004-006-007-026-292000-
NORTHERN IDAHO


CITY           SKY/WX    TMP DP  RH WIND       PRES   REMARKS
LEWISTON       SUNNY     74  46  36 CALM      29.95F
LOWELL           N/A     67  51  56 VRB7      29.97F
COEUR D`ALENE  SUNNY     69  49  48 NE10      29.99F
MULLAN PASS    PTSUNNY   65  42  43 VRB6      30.13F
$$




USA.gov is the U.S. government's official web portal to all federal, state and local government web resources and services.